{"data":{"norad_id":56924,"epoch":"2026-05-24T17:19:55.414560Z","epoch_age_seconds":92341,"freshness":"FRESH","line1":"1 56924U 23083BA  26144.72216915  .00004002  00000+0  15483-3 0  9991","line2":"2 56924  43.0043   1.5120 0002057 284.6128  75.4495 15.27594573163536","mean_motion":15.27594573,"eccentricity":0.0002057,"inclination_deg":43.0043,"raan_deg":1.512,"arg_perigee_deg":284.6128,"mean_anomaly_deg":75.4495,"bstar":0.00015483,"rev_number":16353,"period_min":94.265849424434,"perigee_km":481.59412257802,"apogee_km":484.41679658589,"semimajor_km":6861.142459582,"source":"CELESTRAK","updated_at":"2026-05-25T13:38:18.206868Z"}}